| time (UTC) | temp F | wind direction | speed knots | gust knots | rain 1hr in | rain 24hr in | rain mn in | humidity % | barometer mb |
| 20260507030044 | 62 | 360 | 4.3 | 11.3 | 0.00 | 0.00 | 0.00 | 79 | 1016.5 |
| 20260507024549 | 63 | 9 | 4.3 | 10.4 | 0.00 | 0.00 | 0.00 | 77 | 1016.2 |
| 20260507023043 | 64 | 350 | 4.3 | 10.4 | 0.00 | 0.00 | 0.00 | 75 | 1016.1 |
| 20260507021541 | 66 | 320 | 6.1 | 11.3 | 0.00 | 0.00 | 0.00 | 72 | 1016.0 |
| 20260507020057 | 67 | 16 | 5.2 | 13.0 | 0.00 | 0.00 | 0.00 | 70 | 1015.8 |
| 20260507014547 | 68 | 360 | 6.1 | 11.3 | 0.00 | 0.00 | 0.00 | 68 | 1015.8 |
| 20260507013045 | 69 | 360 | 5.2 | 13.9 | 0.00 | 0.00 | 0.00 | 65 | 1015.8 |
| 20260507011537 | 69 | 360 | 5.2 | 12.2 | 0.00 | 0.00 | 0.00 | 62 | 1015.7 |
| 20260507010038 | 70 | 360 | 7.8 | 13.0 | 0.00 | 0.00 | 0.00 | 61 | 1015.7 |
| 20260507004541 | 71 | 9 | 7.8 | 12.2 | 0.00 | 0.00 | 0.00 | 60 | 1015.7 |
| 20260507003037 | 71 | 22 | 7.8 | 13.0 | 0.00 | 0.00 | 0.00 | 58 | 1015.6 |
| 20260507001535 | 72 | 360 | 7.8 | 12.2 | 0.00 | 0.00 | 0.00 | 57 | 1015.5 |
| 20260507000035 | 73 | 38 | 6.1 | 12.2 | 0.00 | 0.00 | 0.00 | 58 | 1015.4 |
| 20260506234537 | 74 | 23 | 5.2 | 11.3 | 0.00 | 0.00 | 0.00 | 57 | 1015.5 |
| 20260506233033 | 74 | 333 | 5.2 | 10.4 | 0.00 | 0.00 | 0.00 | 55 | 1015.6 |
| 20260506231544 | 75 | 14 | 7.0 | 12.2 | 0.00 | 0.00 | 0.00 | 54 | 1015.7 |
| 20260506230035 | 75 | 9 | 6.1 | 10.4 | 0.00 | 0.00 | 0.00 | 53 | 1016.0 |
| 20260506224529 | 76 | 101 | 4.3 | 12.2 | 0.00 | 0.00 | 0.00 | 55 | 1016.0 |
| 20260506223042 | 76 | 99 | 6.1 | 10.4 | 0.00 | 0.00 | 0.00 | 51 | 1016.1 |
| 20260506221524 | 77 | 77 | 5.2 | 13.0 | 0.00 | 0.00 | 0.00 | 50 | 1016.3 |
| 20260506220025 | 77 | 13 | 4.3 | 10.4 | 0.00 | 0.00 | 0.00 | 51 | 1016.4 |
| 20260506214520 | 77 | 36 | 2.6 | 7.0 | 0.00 | 0.00 | 0.00 | 55 | 1016.5 |
| 20260506213017 | 76 | 336 | 3.5 | 9.6 | 0.00 | 0.00 | 0.00 | 51 | 1016.8 |
| 20260506211517 | 76 | 14 | 2.6 | 7.8 | 0.00 | 0.00 | 0.00 | 49 | 1017.0 |
| 20260506210016 | 75 | 43 | 4.3 | 9.6 | 0.00 | 0.00 | 0.00 | 56 | 1017.1 |
| 20260506204513 | 74 | 36 | 4.3 | 10.4 | 0.00 | 0.00 | 0.00 | 55 | 1017.2 |
| 20260506203021 | 73 | 87 | 3.5 | 8.7 | 0.00 | 0.00 | 0.00 | 56 | 1017.3 |
| 20260506201525 | 74 | 24 | 6.1 | 10.4 | 0.00 | 0.00 | 0.00 | 54 | 1017.5 |
| 20260506200009 | 72 | 298 | 0.9 | 7.8 | 0.00 | 0.00 | 0.00 | 59 | 1017.7 |
| 20260506194506 | 72 | 309 | 0.0 | 7.0 | 0.00 | 0.00 | 0.00 | 56 | 1017.9 |
| 20260506193004 | 72 | 331 | 3.5 | 7.8 | 0.00 | 0.00 | 0.00 | 60 | 1017.9 |
| 20260506191501 | 72 | 347 | 1.7 | 7.0 | 0.00 | 0.00 | 0.00 | 63 | 1018.3 |
| 20260506190100 | 70 | 333 | 0.9 | 4.3 | 0.00 | 0.00 | 0.00 | 59 | 1018.3 |
| 20260506184608 | 71 | 315 | 2.6 | 7.8 | 0.00 | 0.00 | 0.00 | 61 | 1018.4 |
| 20260506183102 | 69 | 57 | 4.3 | 8.7 | 0.00 | 0.00 | 0.00 | 63 | 1018.5 |
| 20260506181553 | 68 | 51 | 2.6 | 9.6 | 0.00 | 0.00 | 0.00 | 64 | 1018.5 |
| 20260506180053 | 68 | 225 | 1.7 | 5.2 | 0.00 | 0.00 | 0.00 | 67 | 1018.5 |
| 20260506174548 | 64 | 10 | 2.6 | 5.2 | 0.00 | 0.00 | 0.00 | 71 | 1018.4 |
| 20260506173051 | 65 | 246 | 1.7 | 6.1 | 0.00 | 0.00 | 0.00 | 69 | 1018.6 |
| 20260506171544 | 64 | 11 | 0.0 | 7.8 | 0.00 | 0.00 | 0.00 | 73 | 1018.6 |
| 20260506170101 | 63 | 336 | 3.5 | 6.1 | 0.00 | 0.00 | 0.00 | 71 | 1018.8 |
| 20260506164538 | 62 | 313 | 2.6 | 5.2 | 0.00 | 0.00 | 0.00 | 75 | 1018.7 |
| 20260506163034 | 61 | 274 | 0.0 | 3.5 | 0.00 | 0.00 | 0.00 | 76 | 1018.8 |
| 20260506161534 | 60 | 312 | 0.9 | 3.5 | 0.00 | 0.00 | 0.00 | 77 | 1018.7 |
| 20260506160030 | 61 | 259 | 0.9 | 3.5 | 0.00 | 0.00 | 0.00 | 77 | 1018.7 |
| 20260506154531 | 60 | 323 | 0.9 | 4.3 | 0.00 | 0.00 | 0.00 | 79 | 1018.8 |
| 20260506153023 | 59 | 307 | 0.9 | 4.3 | 0.00 | 0.00 | 0.00 | 80 | 1018.8 |
| 20260506151520 | 59 | 314 | 0.0 | 3.5 | 0.00 | 0.00 | 0.00 | 80 | 1018.8 |
| 20260506150016 | 58 | 296 | 0.0 | 3.5 | 0.00 | 0.00 | 0.00 | 82 | 1018.7 |
| 20260506144513 | 58 | 300 | 0.0 | 1.7 | 0.00 | 0.00 | 0.00 | 82 | 1018.9 |
| 20260506143020 | 57 | 296 | 0.9 | 4.3 | 0.00 | 0.00 | 0.00 | 82 | 1018.8 |
| 20260506141509 | 57 | 286 | 0.9 | 4.3 | 0.00 | 0.00 | 0.00 | 82 | 1018.7 |
| 20260506140005 | 57 | 321 | 1.7 | 4.3 | 0.00 | 0.00 | 0.00 | 82 | 1018.6 |
| 20260506134501 | 57 | 304 | 0.9 | 3.5 | 0.00 | 0.00 | 0.00 | 82 | 1018.4 |
| 20260506133103 | 57 | 310 | 0.0 | 2.6 | 0.00 | 0.00 | 0.00 | 83 | 1018.2 |
| 20260506131558 | 57 | 325 | 0.9 | 3.5 | 0.00 | 0.00 | 0.00 | 83 | 1017.9 |
| 20260506130100 | 56 | 308 | 0.0 | 2.6 | 0.00 | 0.00 | 0.00 | 83 | 1017.9 |
| 20260506124554 | 57 | 322 | 0.0 | 0.0 | 0.00 | 0.00 | 0.00 | 83 | 1017.8 |
| 20260506123052 | 57 | 337 | 0.0 | 1.7 | 0.00 | 0.00 | 0.00 | 83 | 1017.7 |
| 20260506121553 | 57 | 343 | 0.0 | 0.0 | 0.00 | 0.00 | 0.00 | 82 | 1017.8 |
| 20260506120049 | 57 | 9 | 0.0 | 2.6 | 0.00 | 0.00 | 0.00 | 82 | 1017.6 |
| 20260506114550 | 57 | 319 | 0.0 | 2.6 | 0.00 | 0.00 | 0.00 | 81 | 1017.5 |
| 20260506113047 | 57 | 291 | 0.0 | 2.6 | 0.00 | 0.00 | 0.00 | 80 | 1017.4 |
| 20260506111545 | 57 | 315 | 0.0 | 2.6 | 0.00 | 0.00 | 0.00 | 81 | 1017.3 |
| 20260506110045 | 57 | 323 | 0.0 | 0.0 | 0.00 | 0.00 | 0.00 | 82 | 1017.2 |
| 20260506104543 | 58 | 311 | 0.0 | 3.5 | 0.00 | 0.00 | 0.00 | 81 | 1017.0 |
| 20260506103048 | 58 | 317 | 0.0 | 2.6 | 0.00 | 0.00 | 0.00 | 81 | 1017.0 |
| 20260506101542 | 58 | 306 | 0.9 | 3.5 | 0.00 | 0.00 | 0.00 | 81 | 1017.0 |
| 20260506100041 | 58 | 300 | 0.0 | 1.7 | 0.00 | 0.00 | 0.00 | 81 | 1017.1 |
| 20260506094540 | 58 | 306 | 0.9 | 2.6 | 0.00 | 0.00 | 0.00 | 81 | 1017.1 |
| 20260506093038 | 58 | 315 | 0.0 | 1.7 | 0.00 | 0.00 | 0.00 | 81 | 1017.1 |
| 20260506091538 | 58 | 321 | 0.0 | 2.6 | 0.00 | 0.00 | 0.00 | 81 | 1017.3 |
| 20260506090046 | 58 | 341 | 0.0 | 3.5 | 0.00 | 0.00 | 0.00 | 81 | 1017.2 |
| 20260506084543 | 58 | 321 | 0.9 | 4.3 | 0.00 | 0.00 | 0.00 | 81 | 1017.2 |
| 20260506083035 | 58 | 28 | 0.9 | 4.3 | 0.00 | 0.00 | 0.00 | 81 | 1017.2 |
| 20260506081538 | 58 | 337 | 1.7 | 5.2 | 0.00 | 0.00 | 0.00 | 80 | 1017.1 |
| 20260506073028 | 58 | 46 | 0.9 | 3.5 | 0.00 | 0.00 | 0.00 | 80 | 1016.8 |
| 20260506071625 | 58 | 30 | 0.0 | 4.3 | 0.00 | 0.00 | 0.00 | 80 | 1016.7 |
| 20260506061541 | 59 | 342 | 2.6 | 5.2 | 0.00 | 0.00 | 0.00 | 80 | 1016.4 |
| 20260506044520 | 60 | 350 | 1.7 | 7.0 | 0.00 | 0.00 | 0.00 | 74 | 1015.7 |
| 20260506043024 | 60 | 338 | 0.0 | 2.6 | 0.00 | 0.00 | 0.00 | 72 | 1015.6 |
| 20260506041511 | 60 | 296 | 0.9 | 2.6 | 0.00 | 0.00 | 0.00 | 73 | 1015.3 |
| 20260506040009 | 60 | 355 | 0.0 | 2.6 | 0.00 | 0.00 | 0.00 | 73 | 1015.2 |
| 20260506034508 | 60 | 317 | 1.7 | 3.5 | 0.00 | 0.00 | 0.00 | 73 | 1015.0 |
| 20260506033006 | 60 | 324 | 1.7 | 3.5 | 0.00 | 0.00 | 0.00 | 73 | 1014.8 |
| 20260506031505 | 60 | 360 | 0.9 | 3.5 | 0.00 | 0.00 | 0.00 | 75 | 1014.6 |